User: anonymous   Login
Location: Unspecified
(0.0000°N, 0.0000°E)
Time: 21:30:56
(UTC+00:00)
Language:

METEOR M2 - Orbit

View from above orbital plane
View from above orbital plane
View from above satellite
View from above satellite

Ground track
Ground track

The orbit data is extracted from the following two-line orbital elements,

1 40069U 14037A   18265.88894924 -.00000048 +00000-0 -26340-5 0  9992
2 40069 098.5930 314.3447 0004940 328.1114 031.9767 14.20653986218253
Epoch (UTC): 22 September 2018 21:20:05
Eccentricity: 0.0004940
inclination: 98.5930°
perigee height: 819 km
apogee height: 827 km
right ascension of ascending node: 314.3447°
argument of perigee: 328.1114°
revolutions per day: 14.20653986
mean anomaly at epoch: 31.9767°
orbit number at epoch: 21825

The dashed part of the orbit path shows where the satellite is in the earth's shadow,  

DLR